Temp
84 86 86 85 87 86 86 86 81 82 81 81 80 80 78 78 77 76 76 76 76 75
83 84 85 84 84 86 84 87 82 82 80 80 80 79 77 77 76 76 76 76 77 75
85 84 85 85 84 83 85 86 82 81 81 80 79 78 75 76 77 75 77 77 76 75
85 85 84 86 85 84 84 83 81 80 80 79 79 78 76 75 77 75 75 75 75 75
85 85 84 84 86 85 83 83 82 80 79 79 79 77 75 75 77 75 74 75 74 74
85 84 84 84 84 85 84 82 81 80 79 78 78 76 76 76 76 76 75 75 74 73
84 84 85 84 83 84 84 82 80 80 79 79 78 77 76 76 76 75 76 76 76 75
86 85 84 84 84 84 84 82 80 79 79 79 78 79 75 76 76 75 75 76 76 76
86 85 84 84 84 83 83 82 80 79 78 77 79 71 70 75 76 75 74 73 74 75
86 84 84 84 83 82 82 80 79 78 78 77 77 68 68 70 76 75 75 74 73 74
86 85 84 83 82 81 82 80 77 77 77 76 76 64 64 67 73 72 72 74 74 73
87 84 83 82 81 81 80 78 77 76 75 74 74 62 62 65 70 71 73 74 74 74
87 85 83 82 81 81 79 77 79 76 75 70 73 61 60 63 72 72 73 73 72 66
86 84 84 82 80 79 77 76 75 74 72 71 71 70 58 58 72 73 73 71 70 71
MSLP
1010.56 1010.89 1011.07 1011.43 1011.55 1011.98 1012.24 1012.59 1013.29 1013.90 1014.52 1014.93 1015.21 1015.17 1015.34 1015.68 1016.38 1016.93 1017.49 1017.63 1017.61 1017.48
1009.83 1010.16 1010.39 1010.86 1011.26 1011.61 1011.83 1012.01 1012.72 1013.39 1014.02 1014.45 1014.79 1015.12 1015.44 1015.94 1015.75 1015.67 1016.60 1017.28 1017.45 1017.61
1008.83 1009.39 1009.93 1010.33 1010.64 1011.04 1011.33 1011.65 1012.36 1012.85 1013.38 1014.00 1014.63 1014.92 1015.63 1016.14 1015.94 1015.77 1015.64 1016.22 1016.97 1017.23
1007.95 1008.58 1009.31 1009.53 1009.89 1010.29 1010.82 1011.07 1012.00 1012.50 1012.95 1013.54 1014.14 1014.75 1015.30 1015.76 1015.92 1015.68 1015.70 1015.55 1016.16 1016.74
1007.07 1007.66 1008.30 1008.83 1009.00 1009.55 1010.08 1010.61 1011.16 1011.90 1012.36 1012.86 1013.55 1014.29 1014.83 1015.26 1015.41 1015.40 1015.46 1015.64 1015.57 1016.34
1006.02 1006.68 1007.19 1007.77 1008.34 1008.73 1009.30 1009.85 1010.50 1011.17 1011.76 1012.29 1012.90 1013.57 1014.12 1014.65 1014.92 1014.98 1015.10 1015.18 1014.84 1015.57
1004.84 1005.35 1005.97 1006.79 1007.50 1007.96 1008.53 1009.29 1009.83 1010.49 1011.17 1011.65 1012.38 1013.09 1013.68 1014.20 1014.57 1014.77 1014.74 1014.70 1014.65 1014.87
1003.67 1004.44 1005.32 1006.02 1006.60 1007.25 1007.75 1008.40 1009.04 1009.72 1010.37 1011.13 1011.69 1012.31 1013.07 1013.55 1013.93 1014.15 1014.35 1014.25 1014.26 1014.25
1002.85 1003.64 1004.30 1005.13 1005.81 1006.52 1007.06 1007.73 1008.44 1009.14 1009.72 1010.19 1011.04 1011.82 1012.10 1012.53 1013.00 1013.52 1013.79 1014.00 1014.02 1013.94
1001.65 1002.54 1003.51 1004.39 1005.16 1005.75 1006.40 1007.24 1007.92 1008.78 1009.47 1010.15 1010.85 1011.39 1012.10 1012.32 1012.57 1012.92 1013.15 1013.43 1013.65 1013.87
1000.75 1001.71 1002.76 1003.70 1004.45 1005.19 1005.82 1006.59 1007.70 1008.50 1009.25 1009.90 1010.46 1011.08 1011.69 1012.39 1012.69 1012.71 1012.76 1012.85 1013.08 1013.38
999.93 1001.15 1002.28 1003.14 1003.93 1004.75 1005.63 1006.53 1007.34 1008.15 1008.89 1009.51 1010.29 1011.02 1011.49 1012.03 1012.47 1012.54 1012.40 1012.61 1012.66 1012.75
999.50 1000.70 1001.83 1002.83 1003.84 1004.65 1005.54 1006.43 1007.02 1007.74 1008.48 1009.22 1009.92 1010.60 1010.95 1011.50 1011.70 1011.57 1011.42 1011.57 1011.92 1012.20
999.37 1000.53 1001.70 1002.80 1003.65 1004.45 1005.43 1006.28 1007.01 1007.69 1008.41 1009.15 1009.73 1010.21 1010.73 1010.91 1011.19 1011.07 1011.07 1011.18 1011.30 1011.83
Wind_Speed
14 8 8 8 5 6 6 9 14 10 10 8 8 6 8 8 7 7 4 4 3 3
14 14 10 8 8 6 6 3 14 13 11 9 11 9 8 6 7 6 6 4 4 3
16 16 13 10 10 10 6 6 13 14 12 11 8 9 6 5 5 7 6 5 4 6
16 17 16 13 12 13 10 8 13 13 13 12 11 9 7 7 6 8 7 7 5 3
17 17 17 16 14 13 13 9 10 13 13 13 12 10 10 10 7 7 9 9 7 6
19 18 19 18 17 15 14 13 13 14 14 14 14 13 12 11 9 9 9 8 8 7
20 20 19 17 17 16 15 14 14 13 14 14 14 13 12 11 9 8 7 6 6 7
19 18 16 16 16 16 15 15 14 15 14 13 12 11 12 12 12 10 9 8 7 7
18 17 18 16 15 15 15 15 14 15 14 16 11 12 16 13 11 11 10 8 7 7
18 18 18 16 15 15 15 14 14 14 12 13 12 12 13 15 8 8 9 8 8 8
17 17 16 16 15 14 12 13 11 10 10 10 9 12 11 8 7 5 6 9 9 7
16 16 16 15 15 12 10 10 9 9 11 11 9 12 12 10 8 9 11 8 7 6
13 15 15 13 11 9 8 8 8 9 9 9 10 14 15 12 7 10 9 9 10 9
13 13 12 11 9 10 8 7 7 7 6 7 9 8 16 17 10 8 8 3 5 6
Wind_Direction
207 211 211 202 201 190 200 180 165 166 163 172 178 198 161 162 180 170 175 224 250 324
196 206 206 200 210 194 218 158 163 167 167 185 182 192 174 214 183 145 157 204 209 237
194 200 204 199 201 202 203 184 169 173 174 180 194 188 165 217 208 166 167 166 213 198
198 197 202 205 204 190 200 191 169 175 177 183 190 188 177 222 213 183 181 170 187 225
195 198 198 209 202 199 192 179 172 179 185 187 188 181 185 210 212 195 188 192 167 200
198 199 203 201 207 198 195 191 188 184 191 190 190 184 192 205 219 204 202 203 175 178
198 202 203 200 201 205 197 195 193 195 197 195 191 192 193 204 211 221 218 205 184 177
201 202 199 201 201 203 195 199 196 197 199 197 193 189 191 204 211 209 219 209 202 183
195 196 199 199 200 201 200 199 194 201 197 196 199 197 190 198 202 208 213 214 215 224
191 193 193 192 196 196 203 190 200 200 200 203 204 184 198 193 205 210 213 204 218 228
189 187 184 190 194 198 194 197 197 195 198 201 195 164 169 191 221 257 247 218 213 218
179 175 179 188 192 190 197 192 187 191 195 200 190 172 177 178 209 228 233 234 227 212
163 170 179 181 178 176 167 186 197 192 186 191 206 184 182 182 212 221 215 209 223 213
164 168 166 165 167 165 168 184 191 173 163 189 210 200 196 190 210 229 214 228 200 196